TimeCST,TemperatureF,Dew PointF,Humidity,Sea Level PressureIn,VisibilityMPH,Wind Direction,Wind SpeedMPH,Gust SpeedMPH,PrecipitationIn,Events,Conditions,WindDirDegrees,DateUTC
12:53 AM,39.0,37.9,96,29.88,5.0,ENE,4.6,-,N/A,,Overcast,60,2012-12-09 06:53:00
1:16 AM,39.2,37.4,93,29.86,4.0,East,4.6,-,N/A,,Overcast,80,2012-12-09 07:16:00
1:53 AM,39.0,37.9,96,29.86,2.5,East,4.6,-,N/A,,Overcast,100,2012-12-09 07:53:00
2:09 AM,39.2,37.4,93,29.84,1.8,East,3.5,-,N/A,,Overcast,80,2012-12-09 08:09:00
2:53 AM,39.0,39.0,100,29.86,1.2,ENE,3.5,-,N/A,,Overcast,60,2012-12-09 08:53:00
3:03 AM,39.2,37.4,93,29.84,0.8,Calm,Calm,-,N/A,,Mist,0,2012-12-09 09:03:00
3:53 AM,39.9,37.9,93,29.85,0.8,NNE,4.6,-,N/A,,Mist,30,2012-12-09 09:53:00
4:34 AM,39.2,37.4,93,29.82,0.2,North,3.5,-,N/A,Fog,Fog,10,2012-12-09 10:34:00
4:53 AM,39.0,37.9,96,29.85,0.2,North,3.5,-,N/A,Fog,Fog,10,2012-12-09 10:53:00
5:53 AM,39.0,39.0,100,29.87,0.2,Calm,Calm,-,N/A,Fog,Fog,0,2012-12-09 11:53:00
6:29 AM,39.2,37.4,93,29.85,0.2,NNW,5.8,-,N/A,Fog,Fog,340,2012-12-09 12:29:00
6:37 AM,39.2,37.4,93,29.84,0.2,North,8.1,-,N/A,Fog,Fog,350,2012-12-09 12:37:00
6:50 AM,39.2,39.2,100,29.85,0.2,NNW,6.9,-,N/A,Fog,Fog,340,2012-12-09 12:50:00
6:53 AM,39.9,39.0,97,29.87,0.2,NNW,6.9,-,N/A,Fog,Fog,340,2012-12-09 12:53:00
7:23 AM,39.2,39.2,100,29.87,0.5,NW,5.8,-,N/A,Fog,Fog,310,2012-12-09 13:23:00
7:37 AM,39.2,37.4,93,29.87,1.8,NW,6.9,-,N/A,,Overcast,320,2012-12-09 13:37:00
7:44 AM,39.2,37.4,93,29.88,2.0,NW,5.8,-,N/A,,Overcast,310,2012-12-09 13:44:00
7:53 AM,39.0,37.9,96,29.89,1.8,NW,4.6,-,N/A,,Overcast,310,2012-12-09 13:53:00
8:48 AM,39.2,39.2,100,29.87,2.0,NNW,8.1,-,N/A,,Overcast,330,2012-12-09 14:48:00
8:53 AM,39.9,39.0,97,29.89,2.5,NW,6.9,-,N/A,,Overcast,310,2012-12-09 14:53:00
9:01 AM,39.2,39.2,100,29.88,4.0,NW,9.2,-,N/A,,Overcast,310,2012-12-09 15:01:00
9:15 AM,39.2,39.2,100,29.89,4.0,NW,9.2,-,N/A,,Overcast,310,2012-12-09 15:15:00
9:53 AM,39.9,39.0,97,29.91,6.0,NW,9.2,-,N/A,,Overcast,310,2012-12-09 15:53:00
10:11 AM,41.0,39.2,93,29.90,6.0,NW,6.9,-,N/A,,Overcast,320,2012-12-09 16:11:00
10:53 AM,43.0,39.0,86,29.93,6.0,NW,9.2,-,N/A,,Overcast,310,2012-12-09 16:53:00
12:50 PM,42.8,37.4,81,29.89,7.0,NW,12.7,19.6,N/A,,Overcast,310,2012-12-09 18:50:00
12:53 PM,43.0,37.0,80,29.91,8.0,NW,11.5,-,N/A,,Overcast,320,2012-12-09 18:53:00
1:53 PM,43.0,33.1,68,29.92,10.0,NW,13.8,20.7,N/A,,Mostly Cloudy,320,2012-12-09 19:53:00
2:10 PM,42.8,32.0,66,29.89,10.0,WNW,18.4,23.0,N/A,,Scattered Clouds,300,2012-12-09 20:10:00
2:53 PM,41.0,28.9,62,29.93,10.0,NNW,17.3,23.0,N/A,,Partly Cloudy,330,2012-12-09 20:53:00
3:53 PM,39.0,25.0,57,29.95,10.0,NW,18.4,25.3,N/A,,Clear,320,2012-12-09 21:53:00
4:53 PM,33.1,19.9,59,30.00,10.0,NW,16.1,-,N/A,,Clear,310,2012-12-09 22:53:00
5:53 PM,28.9,15.1,56,30.03,10.0,WNW,23.0,27.6,N/A,,Clear,300,2012-12-09 23:53:00
6:53 PM,28.0,14.0,56,30.04,10.0,WNW,16.1,21.9,N/A,,Clear,300,2012-12-10 00:53:00
7:53 PM,26.1,12.9,58,30.05,10.0,NW,18.4,26.5,N/A,,Clear,320,2012-12-10 01:53:00
8:36 PM,24.8,14.0,64,30.03,10.0,NW,16.1,21.9,N/A,,Mostly Cloudy,320,2012-12-10 02:36:00
8:53 PM,25.0,12.9,60,30.07,10.0,NW,18.4,24.2,N/A,,Overcast,310,2012-12-10 02:53:00
9:43 PM,24.8,10.4,54,30.05,10.0,WNW,18.4,27.6,N/A,,Partly Cloudy,300,2012-12-10 03:43:00
9:53 PM,23.0,10.9,60,30.09,10.0,NW,17.3,24.2,N/A,,Scattered Clouds,310,2012-12-10 03:53:00
10:53 PM,21.9,10.9,63,30.08,10.0,NW,17.3,23.0,N/A,,Clear,320,2012-12-10 04:53:00
11:53 PM,21.0,10.0,63,30.08,10.0,WNW,13.8,-,N/A,,Partly Cloudy,290,2012-12-10 05:53:00